Starlink 30496

operational
NORAD ID: 57919 Int'l Des: 2023-147 Owner: SPXS Country: US Constellation: starlink
LEOCIRCULAR

About Starlink 30496

Description loading...

Live Position

Loading 3D Globe...

Upcoming Passes

Altitude History

Altitude vs Time

uPlot chart will show altitude changes over time

Two-Line Element Set

1 57919U 23147G 25352.57251334 .00000907 00000-0 82176-4 0 9999
2 57919 43.0036 47.0119 0001428 277.6668 82.4013 15.02544943124415
Epoch: Dec 18, 2025 • Age: 9 hours

Current Status

Altitude 559.0 km
Velocity 7.58 km/s
Sub-Earth Point 0.22°N, 159.31°E
Launch Date Sep 24, 2023
Age 2.2 years
Type internet

Technical Details

Classification Payload
Mass 730.00 kg
Dry Mass 700.00 kg
Total Mass 730.00 kg
Length 0.30 m
Diameter 4.10 m
Span 29.00 m
Shape Box + pan
Manufacturer SPXS
Bus Type Starlink V2M
Phase Status In Orbit
Owner/State SPXS/US

Large Constellations

Loading constellations...